[[{"header":{"parameterUnit":"m.s-1","parameterCategory":1,"la1":30.2991,"la2":30.254,"lo1":-89.0895,"lo2":-89.0444,"dy":0.0017,"dx":0.0017,"nx":28,"ny":28,"refTime":"2025-01-17T09:00:00:Z","depth":0,"parameterNumber":2,"parameterNumberName":"U-component_of_WINDS"},"data":[0,0,0,0,0,0,0,0,0,0,0,0,0,0,0,0,0,0,0,0,0,0,0,0,0,0,0,0,0,0,0,0,0,0,0,0,0,0,0,0,0,0,0,0,0,0,0,0,0,0,0,0,0,0,0,0,0,0,3.1183,3.1181,0,3.1046,3.1044,3.1043,3.0928,3.0927,3.0926,3.0925,3.0774,3.0771,3.0768,0,0,0,0,0,0,0,0,0,0,0,0,0,3.1336,3.1334,3.1183,3.1181,3.118,3.1046,3.1044,3.1042,3.0928,3.0927,3.0925,3.0924,3.0775,3.0771,3.0768,0,0,0,0,0,0,0,0,0,0,0,0,0,3.1241,3.1333,3.1183,3.1107,3.1099,3.1047,3.1044,3.1042,3.0929,3.0927,3.0925,3.0923,3.0776,3.0772,3.0768,3.0777,0,0,3.0754,3.0752,0,0,0,0,0,0,0,0,3.1247,3.1236,3.112,3.1112,3.1103,3.1002,3.1043,3.0953,3.0929,3.0993,3.0925,3.0922,3.0851,3.084,3.0818,3.077,3.0763,3.0754,3.0751,3.0749,3.0748,0,0,0,0,0,0,0,3.1254,3.1241,3.1128,3.1118,3.1108,3.1076,3.1061,3.1025,3.0933,3.0987,3.0979,3.0964,3.0846,3.0823,3.0814,3.0761,3.0754,3.075,3.0748,3.0746,3.0712,3.0713,0,0,0,0,0,0,3.1273,3.1247,3.1133,3.1124,3.1172,3.1075,3.1058,3.1036,3.0933,3.0916,3.0966,3.096,3.0831,3.0819,3.0808,3.0811,3.0749,3.0745,3.0743,3.071,3.0712,3.0714,0,0,0,0,0,0,3.1277,3.1264,3.1138,3.1183,3.1165,3.1074,3.1051,3.1035,3.1011,3.0918,3.09,3.096,3.0829,3.0814,3.0786,3.0804,3.0743,3.074,3.0708,3.0711,3.0713,3.0819,0,0,0,0,0,0,3.1282,3.1266,3.1271,3.1185,3.1163,3.1122,3.1052,3.1033,3.1005,3.0996,3.0907,3.0891,3.0826,3.0793,3.0782,3.0797,3.0736,3.0706,3.0709,3.0712,3.0813,3.0825,3.0835,0,0,0,0,0,3.1288,3.1305,3.1272,3.1259,3.1168,3.1123,3.1111,3.1039,3.1008,3.101,3.095,3.0894,3.0805,3.0791,3.0777,3.0792,3.0704,3.0708,3.0712,3.0809,3.0823,3.0835,0,0,0,0,0,0,3.1393,3.1292,3.1255,3.1245,3.1194,3.1104,3.1106,3.1057,3.1011,3.1003,3.0913,3.0894,3.0876,3.083,3.0817,3.0795,3.0747,3.0748,3.0825,3.0838,3.0848,3.0859,3.0733,0,0,0,0,0,3.1415,3.1391,3.1302,3.1302,3.1279,3.1197,3.1175,3.1125,3.1067,3.1044,3.0981,3.0924,3.0883,3.0858,3.0815,3.0807,3.0784,3.081,3.082,3.083,3.0831,3.0822,3.0831,3.0726,3.0726,3.0726,0,0,3.146,3.1402,3.1391,3.1321,3.1276,3.125,3.1179,3.1154,3.1133,3.1038,3.1009,3.0961,3.0891,3.0873,3.0862,3.0835,3.0855,3.0834,3.0843,3.0839,3.0827,3.0837,3.0845,3.0729,3.0729,3.0728,0,0,3.1529,3.1484,3.1478,3.1435,3.1368,3.1314,3.1313,3.123,3.1196,3.1166,3.1094,3.1065,3.0997,3.095,3.0918,3.0969,3.0914,3.0957,3.1012,3.1004,3.1012,3.1019,3.1036,3.1043,3.0959,3.096,3.096,0,3.1592,3.1553,3.148,3.146,3.143,3.1347,3.1339,3.1299,3.1221,3.1201,3.1173,3.1086,3.1033,3.1002,3.1015,3.0991,3.0985,3.0966,3.1018,3.1024,3.1029,3.1044,3.105,3.0965,3.0964,3.0964,3.0963,0,3.1633,3.1607,3.1609,3.154,3.151,3.1496,3.1418,3.1397,3.1349,3.1297,3.1265,3.12,3.1142,3.113,3.1082,3.1092,3.1078,3.1035,3.0985,3.1046,3.1058,3.1063,3.0973,3.0971,3.0969,3.0968,0,0,3.1763,3.1655,3.1657,3.1624,3.1544,3.1521,3.1502,3.1449,3.1431,3.1379,3.1359,3.1304,3.1264,3.1227,3.1172,3.1166,3.1209,3.1123,3.112,3.114,3.1213,3.1245,3.1253,3.1173,3.1173,3.1174,3.1218,0,3.1817,3.1783,3.1717,3.1701,3.1674,3.1595,3.1578,3.1526,3.1477,3.1444,3.1387,3.1349,3.1301,3.1278,3.1267,3.1206,3.1222,3.1202,3.1149,3.1149,3.1169,3.126,3.1293,3.1339,3.1223,3.1224,3.1224,0,3.1877,3.1834,3.1817,3.1739,3.1725,3.1712,3.1657,3.1629,3.1566,3.153,3.149,3.1431,3.1403,3.1359,3.1317,3.1306,3.128,3.1246,3.1246,3.1237,3.119,3.1252,3.1351,3.1358,3.1231,3.1231,3.123,0,3.1972,3.1909,3.1891,3.1865,3.1774,3.1766,3.1728,3.1664,3.1636,3.1587,3.1568,3.1515,3.1486,3.1445,3.1372,3.1347,3.1338,3.1288,3.1304,3.1307,3.1305,3.1306,3.1401,3.1291,3.1291,3.1291,3.1291,0,3.2039,3.2031,3.1932,3.1921,3.1909,3.1832,3.1821,3.1774,3.1719,3.1694,3.1622,3.1599,3.1505,3.1471,3.1413,3.1387,3.1374,3.1342,3.1326,3.1348,3.1352,3.1329,3.1323,3.1293,3.1293,3.1292,3.1292,0,3.2142,3.2076,3.2051,3.1968,3.1947,3.1942,3.1869,3.1853,3.18,3.177,3.1758,3.1673,3.1629,3.1553,3.1486,3.1447,3.1431,3.1405,3.1453,3.1444,3.1464,3.1463,3.1546,3.1552,3.1442,3.1443,3.1444,0,3.2189,3.2182,3.2099,3.208,3.2045,3.2014,3.1986,3.1909,3.1882,3.1811,3.1803,3.1755,3.1711,3.1644,3.1573,3.1521,3.1493,3.1526,3.1484,3.1506,3.1491,3.1492,3.149,3.1535,3.1536,3.1538,3.1539,0,3.2278,3.2246,3.2211,3.2164,3.2134,3.2092,3.2046,3.2033,3.1945,3.1918,3.1875,3.1842,3.1775,3.1726,3.1664,3.1619,3.1563,3.1553,3.1554,3.1575,3.1602,3.1586,3.1478,3.1551,3.155,3.1549,3.1548,3.1548,3.2353,3.2343,3.2284,3.2246,3.2205,3.2164,3.2145,3.2091,3.2055,3.1997,3.1953,3.1912,3.1848,3.176,3.1719,3.1683,3.1657,3.1659,3.1658,3.166,3.1668,3.161,3.1671,3.167,3.167,3.167,3.1669,0,3.2437,3.2396,3.2363,3.2303,3.2273,3.2228,3.2174,3.2151,3.2118,3.2065,3.2025,3.1973,3.1926,3.1853,3.1799,3.1784,3.1757,3.1772,3.1771,3.1761,3.1694,3.1699,3.1795,3.1795,3.1795,3.1795,3.1795,3.1795,3.2478,3.2458,3.2419,3.2377,3.2334,3.2296,3.227,3.2231,3.2188,3.2136,3.2097,3.2052,3.1989,3.193,3.1883,3.1863,3.1845,3.1868,3.1839,3.1778,3.1766,3.1755,3.1758,3.1866,3.1866,3.1909,3.1909,3.191]},{"header":{"parameterUnit":"m.s-1","parameterCategory":1,"la1":30.2991,"la2":30.254,"lo1":-89.0895,"lo2":-89.0444,"dy":0.0017,"dx":0.0017,"nx":28,"ny":28,"refTime":"2025-01-17T09:00:00:Z","depth":0,"parameterNumber":3,"parameterNumberName":"V-component_of_WINDS"},"data":[0,0,0,0,0,0,0,0,0,0,0,0,0,0,0,0,0,0,0,0,0,0,0,0,0,0,0,0,0,0,0,0,0,0,0,0,0,0,0,0,0,0,0,0,0,0,0,0,0,0,0,0,0,0,0,0,0,0,7.5839,7.5844,0,7.6256,7.626,7.6265,7.6392,7.639,7.6388,7.6386,7.6803,7.6816,7.6829,0,0,0,0,0,0,0,0,0,0,0,0,0,7.5143,7.5155,7.5839,7.5844,7.5849,7.6255,7.6261,7.6266,7.6393,7.639,7.6388,7.6385,7.6799,7.6814,7.683,0,0,0,0,0,0,0,0,0,0,0,0,0,7.549,7.5159,7.5838,7.5962,7.5977,7.6254,7.6261,7.6268,7.6393,7.639,7.6387,7.6384,7.6794,7.6813,7.6832,7.7014,0,0,7.6892,7.69,0,0,0,0,0,0,0,0,7.5471,7.5516,7.5938,7.5954,7.5971,7.6269,7.6168,7.6517,7.6394,7.6235,7.6386,7.6383,7.6627,7.666,7.6745,7.7033,7.7051,7.6893,7.6905,7.6914,7.6919,0,0,0,0,0,0,0,7.5446,7.5499,7.6004,7.5944,7.5964,7.5993,7.6039,7.6235,7.6443,7.6248,7.6259,7.6307,7.6636,7.6726,7.6756,7.7057,7.6893,7.691,7.6922,7.693,7.7513,7.7516,0,0,0,0,0,0,7.5403,7.5478,7.599,7.6016,7.5709,7.6008,7.6059,7.6176,7.6441,7.6479,7.6309,7.6311,7.6694,7.6733,7.6771,7.7001,7.6914,7.6932,7.6943,7.7509,7.7513,7.7517,0,0,0,0,0,0,7.5387,7.5447,7.5974,7.575,7.5819,7.6023,7.6153,7.6186,7.6277,7.6487,7.6524,7.6364,7.6693,7.6743,7.6953,7.7017,7.6941,7.6958,7.7504,7.751,7.7515,7.7461,0,0,0,0,0,0,7.5367,7.5441,7.5515,7.5751,7.5831,7.6152,7.6158,7.6197,7.6311,7.6318,7.6548,7.6583,7.6695,7.6923,7.6972,7.7042,7.6974,7.75,7.7507,7.7514,7.7458,7.7464,7.7469,0,0,0,0,0,7.5342,7.5481,7.5518,7.5579,7.5928,7.6155,7.62,7.6329,7.6316,7.639,7.6524,7.6576,7.7001,7.6943,7.7,7.7076,7.7496,7.7505,7.7513,7.7455,7.7463,7.7469,0,0,0,0,0,0,7.5244,7.5514,7.5558,7.5779,7.5943,7.6176,7.6274,7.6333,7.6502,7.6501,7.665,7.67,7.6898,7.7008,7.6939,7.7265,7.725,7.727,7.7187,7.7196,7.7201,7.7171,7.699,0,0,0,0,0,7.5249,7.5415,7.564,7.5812,7.5893,7.6069,7.6173,7.6257,7.6432,7.6502,7.6652,7.6817,7.6988,7.7097,7.7266,7.7473,7.7524,7.7553,7.7559,7.7562,7.7578,7.7694,7.771,7.7545,7.7545,7.7545,0,0,7.526,7.5427,7.5522,7.5797,7.5935,7.61,7.6127,7.63,7.6423,7.6527,7.6735,7.685,7.7044,7.7252,7.7352,7.735,7.7635,7.7573,7.7575,7.7589,7.7705,7.772,7.7734,7.7551,7.755,7.7549,0,0,7.5364,7.5508,7.5668,7.5805,7.6014,7.613,7.6167,7.6391,7.6473,7.6684,7.6765,7.6911,7.7203,7.7338,7.7444,7.7596,7.7649,7.7646,7.7676,7.7787,7.78,7.7812,7.7866,7.7884,7.7661,7.7661,7.7661,0,7.535,7.5606,7.5742,7.5912,7.6029,7.6133,7.6294,7.6419,7.667,7.6747,7.6742,7.711,7.7248,7.7489,7.7525,7.7608,7.7654,7.7622,7.7788,7.7802,7.7815,7.7868,7.7888,7.7659,7.7659,7.766,7.766,0,7.5578,7.5753,7.5857,7.61,7.6229,7.6393,7.655,7.6663,7.6735,7.685,7.7061,7.723,7.7435,7.7497,7.7568,7.7748,7.774,7.7759,7.7748,7.7827,7.7879,7.79,7.7657,7.7657,7.7658,7.7658,0,0,7.5636,7.5952,7.5987,7.6099,7.6335,7.6471,7.6637,7.6841,7.6934,7.7102,7.7245,7.7488,7.7507,7.7627,7.7714,7.7811,7.792,7.7819,7.7825,7.7832,7.8126,7.8111,7.8132,7.7955,7.796,7.7963,7.811,0,7.5771,7.6079,7.6204,7.6451,7.6614,7.6713,7.6858,7.7016,7.7126,7.7277,7.7397,7.7568,7.758,7.7654,7.7754,7.7885,7.7981,7.7876,7.8087,7.8093,7.8037,7.816,7.8146,7.8276,7.8131,7.8134,7.8137,0,7.5971,7.6144,7.6408,7.6623,7.6696,7.6825,7.702,7.7163,7.7343,7.7416,7.755,7.7631,7.7806,7.7781,7.8022,7.7948,7.8041,7.8117,7.8126,7.8151,7.8121,7.8189,7.8321,7.834,7.8171,7.8168,7.8165,0,7.5987,7.6285,7.6482,7.6573,7.683,7.6917,7.7027,7.7205,7.7318,7.7486,7.756,7.7745,7.7846,7.7986,7.8113,7.8083,7.8342,7.8328,7.8406,7.8402,7.8457,7.8452,7.8606,7.8515,7.8514,7.8514,7.8514,0,7.6126,7.6283,7.6493,7.6613,7.6791,7.6932,7.7103,7.7219,7.7375,7.7518,7.7612,7.7743,7.7903,7.8053,7.8152,7.8336,7.8381,7.8443,7.8468,7.8436,7.8428,7.85,7.8494,7.8519,7.8518,7.8517,7.8516,0,7.6175,7.6322,7.6542,7.6767,7.6826,7.6948,7.7138,7.7257,7.737,7.7549,7.7599,7.7777,7.7958,7.8098,7.8333,7.84,7.8594,7.8621,7.8535,7.8548,7.8618,7.8609,7.8824,7.8859,7.8742,7.8743,7.8744,0,7.6255,7.6379,7.6616,7.672,7.683,7.6996,7.7112,7.7253,7.7369,7.7582,7.7675,7.7863,7.8022,7.8306,7.8453,7.8633,7.8664,7.8727,7.8692,7.8655,7.8666,7.8657,7.867,7.8732,7.8732,7.8733,7.8733,0,7.638,7.6447,7.6613,7.6804,7.6941,7.7097,7.7255,7.7333,7.7501,7.7626,7.7815,7.7938,7.8178,7.8363,7.8557,7.8666,7.8727,7.8743,7.877,7.8739,7.8685,7.8715,7.8548,7.8738,7.8737,7.8737,7.8737,7.8736,7.6449,7.6563,7.6748,7.6929,7.7063,7.7208,7.7331,7.746,7.7621,7.783,7.7901,7.8094,7.8267,7.8535,7.8645,7.8796,7.8798,7.8838,7.8848,7.8856,7.8853,7.8659,7.8831,7.8831,7.8831,7.8831,7.8831,0,7.658,7.6704,7.6869,7.7088,7.7229,7.7276,7.7452,7.7566,7.7736,7.7894,7.8049,7.8263,7.8442,7.8603,7.8788,7.8877,7.891,7.8921,7.8917,7.894,7.884,7.8798,7.8892,7.8892,7.8892,7.8892,7.8892,7.8892,7.6665,7.6861,7.6948,7.721,7.7332,7.7525,7.7621,7.7753,7.7881,7.8117,7.8267,7.8372,7.853,7.8727,7.8892,7.8934,7.8998,7.9003,7.9052,7.8955,7.8948,7.894,7.8902,7.9015,7.9015,7.914,7.9141,7.9142]}]]